Location: New Frontier Mobile Home Park
(32.8448°N, 116.9675°W)
Time: 22:20:46
(UTC+00:00)

Cosmos 1656 - Pass Details

Date: 14 July 2020
Orbit: 800 x 848 km, 71.1° (Epoch: 05 August)

Event Time Altitude Azimuth Distance (km) Brightness Sun altitude
Rises 09:15:35 0° 346° (NNW) 3,311 7.5 -32.2°
Reaches altitude 10° 09:18:06 10° 352° (N) 2,380 6.7 -32.0°
Enters shadow 09:23:19 47° 66° (ENE) 1,052 4.3 -31.5°
